Location: Stillwell
(40.4602°N, 82.0928°W)
Time: 22:42:31
(UTC-05:00)

Daily predictions for brighter satellites

Satellite Brightness Start Highest point End
(mag) Time Altitude Azimuth Time Altitude Azimuth Time Altitude Azimuth
AQUARIUS 4.3 17:59:49 10° SSE 18:04:19 84° WSW 18:08:51 10° NNW
Lacrosse 5 4.0 18:03:09 10° NW 18:05:53 14° NNW 18:08:38 10° NNE
Cosmos 1844 Rocket 3.4 18:02:48 10° NNW 18:08:22 59° WSW 18:13:52 10° S
OTV 4 2.6 18:12:31 10° WSW 18:15:02 24° SSW 18:17:31 10° SE
Meteor 1-28 Rocket 4.1 18:12:11 10° NE 18:15:26 28° E 18:18:40 10° SSE
Cosmos 1125 Rocket 3.4 18:10:55 10° NNW 18:16:09 80° ENE 18:21:20 10° SSE
CENTAUR R/B 3.7 18:11:23 10° WSW 18:17:08 39° NW 18:23:36 10° NNE
Meteor 2-10 4.2 18:12:28 10° N 18:17:24 47° ENE 18:22:26 10° SSE
CZ-2C R/B 3.3 18:12:45 10° S 18:17:38 55° W 18:22:23 10° NNW
YAOGAN 1 3.0 18:14:49 10° S 18:19:07 67° WSW 18:23:26 10° NNW
COSMO-SKYMED 1 2.7 18:15:47 10° NNE 18:20:02 52° E 18:24:15 10° S
USA 116 4.4 18:17:13 10° N 18:20:13 41° WNW 18:23:09 10° SW
Thor Agena Rocket 3.9 18:19:28 10° N 18:24:42 71° WNW 18:29:50 10° SSW
SPOT 3 Rocket 4.2 18:21:20 10° S 18:26:25 61° WSW 18:31:32 10° NNW
MSX 4.1 18:21:09 10° S 18:26:51 73° WSW 18:32:37 10° NNW
Resurs 01 Rocket 3.2 18:26:17 13° E 18:27:46 15° ENE 18:30:13 10° NNE
Lacrosse 5 rocket 1.1 18:25:32 10° NW 18:29:18 64° NE 18:33:16 10° SE
Meteor 1-11 4.2 18:24:01 10° S 18:29:38 68° E 18:35:21 10° NNE
Cosmos 1980 3.9 18:25:09 10° SSW 18:30:50 76° WNW 18:36:32 10° NNE
Timation 1 Rocket 4.5 18:26:40 10° NNW 18:32:32 52° ENE 18:38:23 10° SE
Cosmos 1184 Rocket 4.4 18:31:00 10° SE 18:33:15 17° E 18:33:17 17° E
Cosmos 2151 3.1 18:32:02 10° SSW 18:36:14 77° W 18:40:27 10° N
Iridium 4 Rocket 4.4 18:36:10 10° SE 18:39:20 19° E 18:39:48 19° ENE
Cosmos 2279 Rocket 3.9 18:34:16 10° N 18:40:31 75° E 18:46:44 10° SSE
Cosmos 44 4.1 18:38:10 10° SW 18:43:19 54° NW 18:48:16 10° NNE
CZ-4 R/B 4.2 18:42:43 10° SW 18:45:38 20° W 18:48:35 10° NW
ALOS 3.2 18:42:55 10° ESE 18:46:42 25° ENE 18:50:30 10° NNE
NOAA 12 4.1 18:44:21 10° SSE 18:49:29 59° ENE 18:54:40 10° N
Cosmos 2333 Rocket 3.2 18:44:47 10° SW 18:50:10 45° WNW 18:55:35 10° NNE
Cosmos 2219 Rocket 3.7 18:46:24 10° WSW 18:51:31 34° WNW 18:56:38 10° N
Cosmos 1626 2.2 18:50:18 10° S 18:53:55 51° E 18:56:51 15° NNE
SJ-6B 3.0 18:54:31 10° SSE 18:58:29 54° ENE 19:02:31 10° N
Nadezhda 4 Rocket 4.0 18:53:46 10° SSE 18:59:51 57° E 19:06:01 10° NNE
Aureole 2 Rocket 3.6 18:56:18 10° SW 18:59:55 49° WNW 19:03:52 10° N
Cosmos 2242 Rocket 4.2 18:56:43 10° NNE 19:00:44 33° ENE 19:04:44 10° SE
Cosmos 1703 3.2 18:58:22 10° S 19:02:16 89° W 19:06:11 10° N
Cosmos 2278 Rocket 3.2 18:57:19 10° NW 19:02:45 48° WSW 19:08:09 10° S
Cosmos 1455 2.2 19:02:41 10° N 19:06:25 54° E 19:10:09 10° SSE
FAST Rocket 3.7 19:03:54 10° S 19:06:32 81° E 19:06:50 66° NNE
Cosmos 1805 Rocket 3.7 19:03:50 10° S 19:08:17 78° W 19:12:46 10° N
SL-19 R/B 4.3 19:07:19 10° SSE 19:13:06 58° ENE 19:18:36 10° N
Lacrosse 4 Rocket 2.7 19:10:00 10° N 19:12:09 23° NNE 19:12:09 23° NNE
Cosmos 773 Rocket 4.0 19:12:02 10° S 19:17:04 58° ESE 19:19:20 32° NE
FREGAT/IRIS 2.6 19:15:36 10° S 19:18:38 81° WSW 19:21:42 10° NNW
Cosmos 1092 Rocket 4.0 19:14:00 10° S 19:20:12 60° E 19:26:26 10° NNE
Sich 1 3.1 19:21:13 10° S 19:25:40 79° W 19:29:42 13° N
USA 215 3.2 19:21:35 20° SE 19:26:18 82° NE 19:32:53 10° NW
Cosmos 2237 Rocket 3.9 19:21:56 10° WSW 19:26:50 30° WNW 19:31:46 10° N
Abrixas 4.3 19:25:14 10° W 19:27:16 26° NW 19:27:16 26° NW
Cosmos 2369 Rocket 3.9 19:27:30 10° N 19:29:27 17° NNE 19:29:27 17° NNE
Cosmos 1461 3.8 19:28:07 10° SW 19:32:08 45° NW 19:33:37 31° N
Cosmos 1633 Rocket 3.2 19:28:44 10° SSW 19:33:09 74° W 19:36:07 20° N
SL-16 R/B 2.7 19:27:54 10° SW 19:33:28 59° WNW 19:37:58 16° NNE
BREEZE-M DEB (TANK) 4.5 19:42:58 10° W 19:44:00 21° WNW 19:44:00 21° WNW
Cosmos 2195 Rocket 4.4 19:39:26 10° S 19:45:25 61° E 19:46:13 56° ENE
Lacrosse 5 4.1 19:48:36 10° NNW 19:50:06 13° N 19:50:06 13° N
CZ-3A R/B 3.0 19:54:57 10° NW 19:59:29 73° SW 20:01:31 41° SSE
Aureole 1 Rocket 4.2 19:55:35 10° SSW 20:00:50 65° WNW 20:05:29 21° N
Spot 2 Rocket 3.8 19:57:50 10° S 20:02:49 63° WSW 20:07:50 10° NNW
Resurs 01 Rocket 2.2 20:03:49 54° W 20:03:49 54° W 20:08:09 10° NNW
CZ-4C R/B 4.4 20:00:13 10° N 20:03:00 17° NNE 20:03:00 17° NNE
Lacrosse 5 rocket 4.2 20:06:06 10° W 20:08:07 14° WSW 20:10:12 10° SSW
FENGYUN 3A 4.2 20:02:58 10° S 20:08:13 55° W 20:13:31 10° NNW
USA 229 DEB 3.8 20:03:42 10° SW 20:10:33 73° NW 20:12:13 53° NNE
USA 229 3.8 20:03:48 10° SW 20:10:38 74° NW 20:12:16 54° NNE
Cosmos 1627 Rocket 4.5 20:11:39 10° SSW 20:17:50 77° W 20:18:22 71° NW
ALOS 3.9 20:19:49 10° SSW 20:23:59 32° W 20:28:11 10° NNW
ATLAS 5 CENTAUR R/B 4.4 20:22:19 10° NNW 20:23:24 14° N 20:23:24 14° N
